Temperature
19 19 18 18 18 18 18 18 18 17 17 17 17 17 17 17 17 17 17 17 17 17 17 17 17 17 17 17 17 17 17 17 17 17 17 16 16 16 16 16 16 15 15
19 18 18 18 17 17 17 17 17 17 17 17 17 17 17 17 17 17 16 16 16 16 16 16 16 17 17 17 17 17 17 17 16 16 16 16 16 16 16 16 15 15 15
18 18 18 17 17 17 17 17 17 17 17 17 17 16 16 16 16 16 16 16 16 16 16 16 16 16 16 16 16 16 16 16 16 16 16 16 16 16 15 15 15 15 15
18 18 17 17 17 17 17 16 17 16 16 16 16 16 16 16 16 16 16 16 15 15 15 15 15 15 15 15 15 16 16 16 16 16 16 16 15 15 15 15 15 14 14
18 17 17 17 17 16 16 16 16 16 16 16 16 16 16 16 16 16 15 15 15 15 15 15 15 15 15 15 15 15 15 15 15 15 15 15 15 15 15 15 14 14 14
17 17 17 17 16 16 16 16 16 16 16 16 15 16 15 15 15 15 15 15 15 15 15 14 15 14 15 15 15 15 15 15 15 15 15 14 14 14 14 14 14 14 14
17 17 16 16 16 16 16 16 16 16 15 15 15 15 15 15 15 15 15 15 14 14 14 14 14 14 14 14 14 14 14 14 14 14 14 14 14 14 14 14 14 14 14
17 16 16 16 16 16 16 15 15 15 15 15 15 15 15 15 15 15 14 14 14 14 14 14 14 14 14 14 14 14 14 14 14 14 14 14 14 14 14 14 13 13 13
16 16 16 16 16 15 15 15 15 15 15 15 15 14 14 14 14 14 14 14 14 14 14 14 14 14 14 14 14 14 14 14 14 14 14 14 14 14 13 13 13 13 13
16 16 16 16 15 15 15 15 15 14 14 14 14 14 14 14 14 14 14 14 13 13 13 13 13 13 13 13 13 13 13 13 13 14 14 14 14 13 13 13 13 13 12
16 15 15 15 15 15 15 14 14 14 14 14 14 14 14 14 14 14 14 13 13 13 13 13 13 13 13 13 13 13 13 13 13 13 13 13 13 13 13 13 13 13 13
15 15 15 15 15 15 14 14 14 14 14 14 14 14 14 14 14 14 13 13 13 13 13 13 13 13 13 13 13 13 13 13 13 13 13 13 13 13 13 13 13 13 13
15 15 15 14 14 14 14 14 14 14 14 13 14 14 14 13 13 13 13 13 13 13 13 12 12 13 13 13 13 13 12 12 12 12 12 12 12 13 13 12 12 12 12
15 14 14 14 14 14 14 14 13 13 13 13 13 13 13 13 13 13 13 13 13 12 12 12 12 12 12 12 12 12 12 12 12 12 12 12 12 12 12 12 12 12 12
14 14 14 14 14 14 14 13 13 13 13 13 13 13 13 12 12 13 13 12 12 12 12 12 12 12 12 12 12 12 12 12 12 12 12 12 12 12 12 12 12 12 12
13 13 13 13 13 13 13 13 13 13 13 13 12 12 12 12 12 12 12 12 12 12 11 11 11 11 11 11 11 11 11 11 11 11 12 12 12 12 12 12 12 11 11
13 13 13 13 13 13 13 13 12 12 12 12 12 12 12 12 12 12 11 11 11 11 11 11 11 11 11 11 11 11 11 11 11 11 11 11 11 11 11 11 11 11 11
13 13 12 12 12 12 12 12 12 12 12 12 12 11 11 11 11 11 11 11 11 11 11 11 11 11 11 11 11 11 11 11 11 11 11 11 11 11 11 11 11 11 11
13 12 12 12 12 12 12 12 12 11 11 11 11 11 11 11 11 11 11 10 10 10 10 10 10 10 10 10 10 10 10 10 11 11 11 11 11 10 10 10 10 10 10
12 12 12 12 12 11 11 11 11 11 11 11 11 11 11 11 10 10 10 10 10 10 10 10 10 10 10 10 10 10 10 10 10 10 10 10 10 10 10 10 10 10 10
12 12 12 11 11 11 11 11 11 11 11 11 11 10 10 10 10 10 10 10 10 10 10 10 10 10 10 9 9 9 9 9 10 10 10 10 9 9 10 9 10 10 10
11 11 11 11 11 11 11 11 11 11 11 10 10 10 10 10 10 10 9 9 9 9 9 9 9 9 9 9 9 9 9 9 9 9 9 9 9 9 9 9 9 9 9
11 11 11 11 11 11 10 10 10 10 10 10 10 10 9 9 9 9 9 9 9 9 9 9 9 9 9 9 9 9 9 9 9 9 9 9 9 9 9 9 8 8 8
11 11 11 11 11 10 10 10 10 10 10 10 10 9 9 9 9 9 9 9 9 8 9 8 8 8 8 8 8 8 8 8 8 8 8 8 8 8 8 8 8 8 8
11 11 11 11 10 10 10 10 10 10 9 9 9 9 9 9 9 9 8 8 8 8 8 8 8 8 8 8 8 8 8 8 8 8 8 8 8 8 8 8 8 8 8
11 11 11 10 10 10 10 10 9 9 9 9 9 8 8 8 8 8 8 8 8 8 8 8 8 8 8 8 8 8 8 8 8 8 8 8 8 7 7 7 7 7 7
Wind_Speed
4 3 2 3 2 1 1 1 2 2 2 2 1 1 1 1 1 1 1 0 0 1 1 1 1 2 2 2 2 1 1 1 1 1 1 1 1 1 2 2 3 5 5
4 3 3 2 2 2 2 2 2 1 1 1 1 1 1 1 1 1 2 1 0 0 1 1 1 1 1 3 3 2 1 0 0 1 1 1 1 1 1 1 1 3 4
4 3 3 2 2 2 1 1 1 1 1 1 1 1 1 1 1 1 1 1 0 0 0 1 1 1 1 1 2 3 2 2 1 1 2 1 0 0 0 2 2 1 2
4 4 3 2 1 1 1 1 1 1 0 1 1 1 1 1 1 1 1 1 1 1 1 1 1 1 0 2 2 2 2 3 2 1 2 1 1 1 1 1 2 1 2
3 3 3 3 2 1 1 1 1 0 1 1 1 1 2 2 1 1 1 1 1 1 1 1 1 1 1 0 1 2 2 2 2 2 2 2 1 0 1 2 2 2 3
3 2 2 2 2 1 1 1 1 1 1 2 1 2 2 2 2 2 2 2 1 2 2 1 1 1 2 2 2 2 2 3 2 2 2 2 2 1 1 2 2 2 2
3 2 2 2 1 1 1 1 1 1 2 2 2 1 1 1 2 2 2 2 2 2 2 2 3 2 1 1 2 4 4 5 4 3 4 4 3 2 2 3 3 3 3
3 2 2 2 1 1 1 1 2 2 2 2 2 2 1 1 1 1 2 2 3 3 3 3 2 1 2 2 3 3 3 3 4 4 3 4 4 2 3 3 4 4 3
2 2 2 1 1 1 1 1 1 2 2 2 2 2 2 2 1 1 1 2 2 3 3 3 2 2 3 2 2 3 4 4 5 5 5 6 6 5 4 3 3 2 3
2 2 2 2 2 2 1 1 2 2 2 2 2 2 2 2 3 2 2 3 3 3 2 2 2 1 2 1 2 4 5 5 5 5 5 7 6 7 7 5 4 3 3
1 1 1 1 1 1 1 2 2 2 3 3 3 3 3 4 3 4 3 3 3 4 3 2 2 2 2 3 4 5 6 6 6 6 5 4 4 3 4 4 4 3 3
1 0 0 1 2 2 1 2 2 2 3 4 4 4 4 3 4 4 4 5 4 4 4 3 2 2 3 5 6 7 7 6 5 5 4 3 3 3 3 4 4 3 3
0 0 1 1 2 2 2 2 2 2 3 4 3 3 3 2 2 3 5 5 5 4 4 5 5 5 5 6 8 9 6 4 4 5 5 4 3 3 3 3 3 3 3
0 0 1 2 2 2 2 2 2 2 3 3 3 3 2 1 1 1 2 2 3 4 4 5 5 6 7 7 6 5 5 5 5 5 5 4 2 2 3 2 3 3 3
1 1 2 1 1 2 2 2 2 1 2 2 3 3 3 2 2 2 2 3 3 3 3 4 4 3 4 3 4 4 4 4 5 5 4 4 3 3 3 3 3 3 3
1 1 1 2 1 2 1 2 2 1 1 1 1 3 3 2 2 2 3 4 4 3 2 4 4 4 4 4 4 4 4 4 4 4 4 4 4 3 3 3 3 3 4
1 1 2 2 2 2 2 2 2 2 2 2 3 3 2 3 2 3 4 4 4 3 3 5 5 4 5 4 4 4 4 3 3 4 4 4 4 4 3 3 3 3 4
1 1 2 2 2 2 2 2 2 2 2 2 2 2 3 3 3 3 3 2 3 3 4 4 4 4 4 4 4 4 4 3 3 3 3 3 3 4 4 3 3 3 3
2 1 2 2 2 2 3 3 3 3 2 3 3 2 2 3 3 3 2 3 4 4 4 4 4 4 4 3 3 4 4 3 3 3 3 3 3 3 3 3 3 4 4
1 1 2 2 2 2 3 3 3 3 3 3 3 2 2 2 2 2 2 3 4 3 4 4 4 4 4 4 3 4 4 4 4 3 3 3 3 3 3 4 4 4 3
2 1 1 2 2 2 3 3 3 3 3 3 2 2 3 3 3 3 3 3 3 3 3 4 3 4 4 3 3 4 5 4 4 3 3 3 2 3 3 3 3 3 3
3 2 2 2 2 3 3 3 4 3 3 3 2 2 4 4 4 3 3 3 3 3 3 4 4 3 3 3 3 3 4 3 3 3 3 3 3 3 3 3 3 3 3
3 3 3 2 2 3 3 3 3 3 4 4 3 3 3 3 4 3 3 4 3 3 3 3 3 3 3 2 2 3 3 3 3 4 4 4 4 3 3 4 4 4 4
4 4 3 2 2 3 3 3 3 4 4 4 4 4 4 3 4 4 4 4 3 3 3 2 2 3 3 2 2 3 3 3 4 4 4 4 5 4 4 4 4 5 4
3 3 3 3 3 3 3 3 4 4 4 4 4 4 4 4 4 4 4 4 4 3 4 3 2 3 3 3 3 4 5 4 3 4 3 4 5 5 4 5 4 4 4
3 4 3 3 3 3 3 3 3 4 4 3 3 3 3 4 4 4 3 4 4 4 4 3 3 4 4 3 4 5 3 3 4 4 4 3 4 4 3 3 4 3 3
Wind_Direction
146 147 134 141 147 132 101 74 66 47 23 17 17 18 13 351 335 325 319 11 345 314 304 332 329 338 332 328 330 341 359 353 295 324 52 82 95 96 128 164 168 161 163
135 137 134 132 121 101 87 83 84 71 21 13 354 344 328 328 325 314 313 1 11 341 330 357 331 319 340 344 338 338 341 339 229 273 250 220 176 169 164 226 186 169 166
132 128 119 116 111 103 88 72 66 57 7 4 322 313 312 312 302 314 313 327 341 318 300 275 293 329 340 325 322 328 318 312 251 255 254 215 184 136 122 271 267 210 198
132 133 124 114 106 115 103 86 64 46 342 308 307 302 299 306 338 356 320 306 321 334 312 294 283 291 284 293 284 299 307 312 303 281 269 242 195 157 193 277 290 269 262
127 136 133 129 129 126 135 160 169 181 275 292 297 295 275 271 294 337 301 259 317 317 305 288 261 164 114 29 312 318 318 316 307 296 286 297 311 57 264 257 270 266 261
137 149 136 141 151 161 179 186 190 209 257 264 262 282 289 292 4 11 348 304 265 262 272 283 233 173 175 192 235 290 300 285 294 302 298 289 293 295 274 278 277 285 286
158 156 154 155 169 200 245 239 237 237 240 251 255 263 292 326 9 18 353 323 292 272 267 277 277 286 8 271 256 247 257 265 253 254 277 285 290 291 273 281 282 280 272
165 174 182 187 194 205 255 273 272 271 266 266 262 246 211 272 345 359 326 285 282 269 257 246 246 279 296 311 285 273 259 254 251 243 245 260 263 261 258 259 269 270 265
173 179 179 185 193 219 264 278 283 278 265 257 261 251 222 212 249 296 296 272 273 276 259 258 244 248 292 309 287 278 279 279 268 260 251 252 250 250 257 269 266 266 278
183 197 192 194 210 227 252 279 284 279 280 271 260 250 235 221 230 240 256 257 265 275 263 253 240 220 264 271 269 274 275 280 286 284 265 254 240 235 228 225 237 246 273
181 198 189 191 222 228 232 247 264 279 276 269 263 253 240 231 225 230 229 246 267 269 265 255 241 207 243 259 265 266 269 277 276 271 259 244 228 226 218 219 221 227 250
132 172 192 228 260 256 239 249 258 274 275 263 257 255 254 237 216 221 219 230 259 270 274 277 269 266 263 263 261 267 276 276 270 272 266 254 235 225 227 223 227 223 220
113 209 249 251 257 250 246 245 250 259 271 275 268 259 263 252 209 212 223 238 249 259 279 296 294 277 268 258 247 254 261 260 260 265 266 261 249 230 216 217 213 214 233
120 261 267 250 251 252 250 242 254 268 279 286 290 287 277 261 273 287 267 259 253 261 281 294 283 266 268 265 257 252 244 249 252 257 266 265 257 240 228 222 217 213 226
209 260 273 275 281 265 262 265 260 279 261 271 289 293 287 283 290 302 277 268 268 269 279 277 270 261 258 259 249 245 245 248 255 261 262 264 263 257 244 229 227 223 230
277 293 291 279 285 290 288 319 333 293 302 341 321 302 306 293 251 269 279 268 256 254 267 268 268 267 266 269 273 267 254 251 258 262 263 260 256 257 256 242 235 233 238
276 297 298 302 301 296 300 297 305 328 0 332 297 291 280 285 283 273 282 281 260 243 255 263 264 264 269 269 270 273 273 264 261 264 264 264 265 262 254 244 240 240 243
298 314 316 310 308 309 311 311 312 309 310 318 306 267 257 267 273 271 277 296 280 253 259 270 276 279 278 286 287 285 285 281 270 272 274 275 271 264 252 244 244 248 247
317 351 343 332 325 325 323 316 314 323 324 322 325 318 266 272 274 271 254 264 270 277 278 281 285 291 296 297 296 295 293 294 294 285 280 276 277 276 269 260 252 251 245
310 16 351 327 333 327 320 321 325 324 324 319 320 338 343 305 292 291 261 263 274 279 285 289 293 296 297 299 298 295 296 295 293 284 281 279 279 281 278 272 261 252 247
325 330 332 321 324 327 319 319 321 315 317 322 329 329 313 286 279 275 264 257 267 277 283 288 290 289 285 284 284 284 285 287 288 289 290 287 283 284 281 277 273 265 262
312 300 300 308 311 311 312 309 312 317 324 331 331 312 297 296 304 306 305 296 281 276 274 270 278 290 300 300 296 296 295 297 302 302 305 300 289 277 280 282 276 270 265
318 309 307 302 306 306 303 316 321 322 324 328 328 322 307 305 312 317 316 314 309 296 290 294 297 305 312 312 308 302 297 300 303 301 299 295 295 293 280 268 269 273 266
317 319 312 306 308 304 303 308 311 311 314 322 327 327 326 326 320 323 323 316 311 306 307 300 295 305 319 318 317 316 326 319 309 301 291 285 284 283 279 270 263 264 261
312 323 328 317 305 308 311 311 313 314 313 320 326 333 337 335 328 327 326 322 316 317 319 314 313 310 315 326 340 343 357 337 315 307 293 279 279 276 272 271 266 271 274
321 319 322 328 328 325 318 311 311 311 309 310 318 324 324 323 320 324 333 337 330 328 329 331 345 347 351 0 355 12 2 327 309 301 291 279 282 282 282 282 279 269 270
Height
1511 1512 1513 1514 1514 1514 1515 1515 1514 1514 1514 1513 1513 1512 1512 1511 1511 1511 1511 1511 1511 1511 1511 1512 1512 1512 1513 1513 1514 1514 1514 1515 1514 1515 1515 1514 1514 1514 1513 1513 1512 1511 1510
1510 1511 1512 1512 1513 1513 1513 1513 1513 1513 1512 1511 1511 1511 1510 1510 1510 1510 1510 1510 1509 1509 1509 1510 1510 1510 1511 1511 1512 1512 1512 1513 1513 1513 1513 1513 1513 1512 1511 1511 1510 1510 1509
1509 1510 1511 1511 1512 1512 1512 1512 1512 1511 1511 1510 1510 1509 1509 1509 1508 1508 1508 1508 1508 1507 1507 1507 1508 1508 1508 1509 1509 1510 1510 1511 1511 1511 1511 1511 1510 1510 1510 1509 1509 1508 1507
1508 1509 1509 1510 1510 1510 1511 1511 1510 1510 1509 1509 1508 1508 1508 1507 1507 1506 1506 1506 1506 1506 1506 1506 1506 1506 1506 1506 1507 1507 1508 1508 1508 1509 1509 1508 1508 1508 1508 1507 1507 1506 1506
1507 1507 1508 1508 1509 1509 1509 1509 1509 1508 1508 1508 1507 1506 1506 1506 1505 1505 1504 1504 1503 1503 1503 1503 1503 1503 1503 1503 1504 1505 1505 1506 1506 1507 1507 1506 1506 1506 1505 1505 1504 1504 1504
1505 1506 1506 1507 1507 1507 1507 1507 1507 1506 1506 1506 1505 1505 1504 1504 1504 1503 1502 1502 1501 1501 1501 1501 1501 1501 1501 1501 1502 1502 1503 1503 1503 1504 1504 1504 1503 1503 1503 1502 1502 1502 1501
1503 1504 1505 1505 1505 1505 1506 1506 1505 1505 1504 1504 1503 1502 1502 1502 1502 1501 1501 1500 1499 1499 1499 1499 1499 1499 1499 1499 1499 1500 1500 1500 1501 1501 1501 1501 1501 1500 1500 1499 1499 1499 1498
1501 1502 1502 1503 1503 1503 1503 1503 1503 1503 1502 1502 1501 1501 1500 1499 1499 1499 1498 1498 1497 1497 1497 1497 1497 1497 1496 1496 1496 1497 1497 1497 1498 1498 1498 1498 1498 1497 1497 1497 1496 1496 1496
1499 1499 1500 1500 1500 1500 1500 1500 1500 1500 1499 1499 1499 1498 1497 1497 1497 1496 1496 1495 1495 1495 1495 1495 1494 1494 1494 1494 1494 1493 1493 1493 1494 1494 1493 1493 1493 1493 1493 1493 1493 1493 1492
1497 1497 1498 1498 1498 1498 1498 1497 1497 1497 1496 1496 1496 1495 1495 1494 1494 1494 1494 1493 1492 1492 1492 1492 1491 1491 1490 1490 1490 1490 1489 1489 1489 1489 1489 1489 1489 1489 1489 1489 1490 1489 1490
1495 1496 1496 1495 1495 1495 1495 1495 1494 1494 1494 1493 1493 1492 1492 1491 1491 1491 1491 1490 1490 1489 1489 1488 1488 1488 1487 1487 1486 1486 1486 1486 1485 1485 1485 1485 1485 1485 1485 1485 1486 1486 1486
1493 1493 1493 1493 1493 1493 1493 1492 1492 1491 1491 1490 1489 1489 1488 1488 1488 1487 1487 1487 1487 1487 1486 1486 1485 1484 1484 1483 1483 1482 1482 1482 1482 1481 1481 1481 1481 1481 1481 1481 1482 1482 1482
1491 1491 1491 1491 1491 1491 1490 1490 1489 1489 1488 1487 1486 1486 1486 1485 1485 1485 1484 1484 1484 1483 1483 1483 1482 1481 1480 1479 1479 1479 1479 1478 1478 1478 1477 1477 1478 1478 1478 1478 1478 1478 1479
1488 1488 1488 1488 1488 1488 1488 1487 1487 1486 1485 1485 1484 1483 1483 1483 1482 1481 1480 1480 1480 1480 1479 1478 1478 1477 1477 1476 1475 1475 1474 1474 1474 1474 1474 1474 1474 1474 1474 1474 1474 1474 1474
1485 1486 1486 1486 1486 1485 1485 1485 1484 1483 1483 1482 1481 1481 1480 1479 1478 1478 1477 1476 1476 1476 1475 1475 1474 1474 1473 1472 1472 1471 1471 1470 1470 1470 1470 1470 1470 1470 1470 1470 1470 1470 1470
1483 1483 1484 1484 1483 1483 1482 1482 1481 1481 1480 1479 1479 1478 1477 1476 1475 1474 1474 1473 1473 1473 1472 1471 1471 1471 1470 1469 1468 1468 1467 1467 1466 1466 1466 1466 1466 1466 1465 1465 1465 1466 1466
1482 1482 1481 1481 1481 1480 1480 1479 1478 1478 1477 1476 1475 1475 1474 1473 1472 1471 1470 1470 1470 1469 1468 1468 1468 1467 1467 1466 1465 1465 1464 1463 1463 1462 1462 1462 1462 1462 1461 1461 1461 1461 1461
1480 1480 1479 1479 1479 1478 1478 1477 1476 1474 1473 1472 1472 1471 1470 1469 1468 1468 1467 1466 1466 1465 1465 1464 1464 1464 1463 1462 1462 1461 1460 1459 1459 1458 1458 1458 1458 1457 1457 1457 1457 1457 1456
1479 1479 1478 1477 1477 1476 1476 1475 1474 1473 1471 1470 1469 1468 1468 1467 1466 1465 1464 1463 1462 1462 1462 1461 1461 1460 1459 1459 1458 1457 1457 1456 1455 1454 1454 1453 1453 1453 1452 1452 1452 1452 1452
1478 1477 1477 1476 1475 1475 1474 1473 1472 1471 1469 1468 1467 1466 1465 1464 1463 1462 1461 1460 1460 1459 1458 1458 1457 1456 1456 1455 1454 1453 1453 1452 1451 1450 1449 1449 1448 1448 1448 1448 1448 1448 1448
1477 1476 1476 1475 1474 1474 1473 1472 1470 1469 1468 1467 1465 1464 1463 1461 1460 1459 1458 1457 1457 1456 1455 1454 1454 1453 1452 1451 1450 1449 1449 1448 1447 1446 1446 1445 1444 1444 1444 1444 1444 1443 1443
1476 1475 1474 1474 1473 1472 1471 1470 1469 1467 1466 1465 1464 1462 1461 1459 1458 1457 1456 1454 1453 1452 1452 1451 1450 1449 1448 1447 1446 1445 1445 1444 1443 1442 1442 1441 1441 1440 1440 1440 1439 1439 1439
1474 1474 1473 1472 1472 1471 1470 1469 1467 1466 1465 1463 1462 1460 1459 1457 1456 1454 1453 1452 1451 1450 1449 1448 1447 1446 1445 1444 1443 1442 1441 1440 1439 1439 1438 1437 1437 1436 1436 1435 1435 1435 1435
1473 1472 1471 1471 1470 1469 1468 1467 1466 1465 1463 1461 1460 1458 1457 1455 1453 1452 1450 1449 1448 1447 1445 1444 1443 1442 1441 1440 1439 1438 1437 1436 1435 1434 1434 1433 1433 1432 1432 1431 1431 1431 1431
1472 1471 1470 1469 1468 1467 1466 1465 1464 1463 1461 1459 1458 1456 1454 1453 1451 1450 1448 1446 1445 1444 1442 1441 1440 1439 1438 1437 1435 1434 1433 1432 1431 1430 1429 1429 1429 1429 1428 1428 1428 1428 1428
1470 1469 1468 1467 1466 1465 1464 1462 1461 1460 1458 1457 1455 1453 1452 1450 1449 1447 1445 1444 1442 1441 1440 1439 1437 1436 1434 1433 1432 1431 1430 1428 1427 1427 1426 1425 1425 1425 1425 1424 1424 1425 1425